Fairbanks, AK

10:51 AM AKDT on July 17, 2019 (GMT -0800)
Fairbanks International

Weather History for PAFA - January, 1975

Change the Weather History Date:

Friday, January 31, 1975

  Actual Average Record
Temperature  
Mean Temperature -22 °F -6 °F  
Max Temperature -13 °F 3 °F 42 °F (1940)
Min Temperature -31 °F -14 °F -52 °F (1911)
Degree Days  
Heating Degree Days 87 71  
Month to date heating degree days 2261  
Since 1 July heating degree days 8532  
Cooling Degree Days 0 0  
Month to date cooling degree days 0  
Year to date cooling degree days 0  
Moisture  
Dew Point -32 °F    
Average Humidity 65    
Maximum Humidity 74    
Minimum Humidity 51    
Precipitation  
Precipitation 0.00 in 0.02 in 0.48 in (1932)
Month to date precipitation 0.58  
Year to date precipitation 0.58  
Snow  
Snow 0.00 in 0.30 in 5.90 in (1932)
Month to date snowfall 10.3  
Since 1 July snowfall 48.2  
Snow Depth -    
Sea Level Pressure  
Sea Level Pressure 30.70 in    
Wind  
Wind Speed 2 mph (NNE)    
Max Wind Speed 5 mph    
Max Gust Speed -    
Visibility 7 miles    
Events Fog    
T = Trace of Precipitation, MM = Missing Value Source: NWS Daily Summary

Daily Weather History Graph

Daily Weather History Graph

Search for Another Location

Airport or City:

Astronomy

Jan. 31, 1975 Rise Set
Actual Time 8:41 AM AHST 3:29 PM AHST
Civil Twilight 7:41 AM AHST 4:29 PM AHST
Nautical Twilight 6:40 AM AHST 5:30 PM AHST
Astronomical Twilight 5:43 AM AHST 6:27 PM AHST
Moon 11:46 PM AHST (1/31) 8:29 AM AHST (1/31)
Length of Visible Light 8h 47m
Length of Day
6h 48m
Waning Gibbous, 75% of the Moon is Illuminated
Jan 31
Waning Gibbous
Feb 2
Last Quarter
Feb 10
New
Feb 18
First Quarter
Feb 25
Full

Hourly Weather History & Observations

Time (AHST) Temp. Windchill Dew Point Humidity Pressure Visibility Wind Dir Wind Speed Gust Speed Precip Events Conditions
12:00 AM -27.9 °F - -34.1 °F 73% 30.86 in 10.0 mi Calm Calm - N/A   Clear
1:00 AM -25.1 °F -39.1 °F -31.0 °F 74% 30.84 in 5.0 mi North 4.6 mph - N/A Fog Fog
2:00 AM -27.9 °F - -34.1 °F 73% 30.83 in 5.0 mi Calm Calm - N/A Fog Fog
3:00 AM -27.9 °F -42.5 °F -34.1 °F 73% 30.81 in 6.0 mi North 4.6 mph - N/A Fog Fog
4:00 AM -27.0 °F -41.5 °F -33.0 °F 73% 30.79 in 6.0 mi NE 4.6 mph - N/A Fog Fog
5:00 AM -29.0 °F - -35.0 °F 73% 30.77 in 5.0 mi Calm Calm - N/A Fog Fog
6:00 AM -29.9 °F -42.0 °F -36.0 °F 72% 30.76 in 5.0 mi NNE 3.5 mph - N/A Fog Fog
6:34 AM - - - N/A% 30.68 in 2.0 mi Calm Calm - N/A Fog Fog
7:00 AM -27.9 °F -42.5 °F -34.1 °F 73% 30.74 in 5.0 mi NW 4.6 mph - N/A Fog Fog
8:00 AM -31.0 °F -46.1 °F -36.9 °F 73% 30.73 in 5.0 mi East 4.6 mph - N/A Fog Fog
9:00 AM - - - N/A% 30.72 in 0.5 mi Calm Calm - N/A Fog Fog
9:08 AM - - - N/A% 30.65 in 6.0 mi Calm Calm - N/A Fog Fog
10:00 AM -27.0 °F - -33.0 °F 73% 30.71 in 5.0 mi Calm Calm - N/A Fog Fog
11:00 AM -23.1 °F -36.8 °F -35.0 °F 54% 30.71 in 5.0 mi WSW 4.6 mph - N/A Fog Fog
12:00 PM -18.9 °F -29.5 °F -31.0 °F 54% 30.69 in 15.0 mi NE 3.5 mph - N/A   Clear
1:00 PM -16.1 °F -26.2 °F -27.9 °F 55% 30.66 in 40.0 mi NW 3.5 mph - N/A   Unknown
2:00 PM -15.0 °F - -26.0 °F 58% 30.63 in 60.0 mi Calm Calm - N/A   Mostly Cloudy
3:00 PM -13.0 °F - -20.9 °F 68% 30.62 in 60.0 mi Calm Calm - N/A   Partly Cloudy
4:00 PM -15.0 °F -25.0 °F -27.0 °F 55% 30.61 in 60.0 mi NE 3.5 mph - N/A   Clear
5:00 PM -17.0 °F - -29.0 °F 54% 30.62 in 20.0 mi Calm Calm - N/A   Clear
6:00 PM -18.9 °F -32.0 °F -32.1 °F 51% 30.61 in 15.0 mi North 4.6 mph - N/A   Clear
7:00 PM -20.0 °F -33.3 °F -32.1 °F 54% 30.61 in 10.0 mi NNW 4.6 mph - N/A   Clear
8:00 PM -25.1 °F - -31.0 °F 74% 30.61 in 7.0 mi Calm Calm - N/A   Clear
9:00 PM -24.0 °F - -36.0 °F 53% 30.61 in 5.0 mi Calm Calm - N/A Fog Fog
10:00 PM -23.1 °F -36.8 °F -33.0 °F 60% 30.62 in 7.0 mi NNE 4.6 mph - N/A   Clear
11:00 PM -25.1 °F -39.1 °F -31.0 °F 74% 30.62 in 4.0 mi NE 4.6 mph - N/A Fog Fog